Hourly Weather Aksholak

Today, 8 July, Wednesday

Time Temperature Precipitation Wind Pressure Humidity
00:00 +29°C° 0 mm 2 mps 744 mmHg 35%
01:00 +28°C° 0 mm 2 mps 744 mmHg 38%
02:00 +28°C° 0 mm 2 mps 744 mmHg 39%
03:00 +27°C° 0 mm 2 mps 744 mmHg 41%
04:00 +27°C° 0 mm 2 mps 744 mmHg 41%
05:00 +28°C° 0 mm 2 mps 744 mmHg 38%
06:00 +29°C° 0 mm 2 mps 744 mmHg 36%
07:00 +30°C° 0 mm 2 mps 744 mmHg 34%
08:00 +32°C° 0 mm 2 mps 744 mmHg 31%
09:00 +35°C° 0 mm 3 mps 744 mmHg 27%
10:00 +37°C° 0 mm 2 mps 744 mmHg 23%
11:00 +38°C° 0 mm 3 mps 744 mmHg 21%
12:00 +40°C° 0 mm 4 mps 744 mmHg 19%
13:00 +41°C° 0 mm 4 mps 743 mmHg 18%
14:00 +41°C° 0 mm 4 mps 743 mmHg 18%
15:00 +41°C° 0 mm 4 mps 743 mmHg 18%
16:00 +40°C° 0 mm 4 mps 742 mmHg 17%
17:00 +40°C° 0 mm 4 mps 742 mmHg 18%
18:00 +39°C° 0 mm 5 mps 742 mmHg 18%
19:00 +39°C° 0 mm 5 mps 742 mmHg 19%
20:00 +36°C° 0 mm 5 mps 742 mmHg 22%
21:00 +34°C° 0 mm 4 mps 742 mmHg 25%
22:00 +32°C° 0 mm 4 mps 742 mmHg 28%
23:00 +30°C° 0 mm 3 mps 742 mmHg 30%

Tomorrow, 9 July, Thursday

Time Temperature Precipitation Wind Pressure Humidity
00:00 +29°C° 0 mm 3 mps 742 mmHg 32%
01:00 +28°C° 0 mm 3 mps 742 mmHg 34%
02:00 +28°C° 0 mm 2 mps 742 mmHg 36%
03:00 +27°C° 0 mm 2 mps 742 mmHg 39%
04:00 +27°C° 0 mm 2 mps 742 mmHg 41%
05:00 +28°C° 0 mm 2 mps 742 mmHg 39%
06:00 +29°C° 0 mm 2 mps 742 mmHg 37%
07:00 +30°C° 0 mm 2 mps 742 mmHg 34%
08:00 +34°C° 0 mm 2 mps 742 mmHg 30%
09:00 +36°C° 0 mm 2 mps 742 mmHg 25%
10:00 +38°C° 0 mm 2 mps 742 mmHg 21%
11:00 +39°C° 0 mm 3 mps 742 mmHg 19%
12:00 +41°C° 0 mm 4 mps 742 mmHg 17%
13:00 +42°C° 0 mm 5 mps 742 mmHg 15%
14:00 +41°C° 0 mm 7 mps 742 mmHg 16%
15:00 +40°C° 0 mm 8 mps 742 mmHg 17%
16:00 +40°C° 0 mm 10 mps 741 mmHg 19%
17:00 +38°C° 0 mm 9 mps 741 mmHg 23%
18:00 +35°C° 0 mm 9 mps 741 mmHg 27%
19:00 +33°C° 0 mm 9 mps 742 mmHg 31%
20:00 +32°C° 0 mm 8 mps 742 mmHg 35%
21:00 +30°C° 0 mm 7 mps 742 mmHg 39%
22:00 +28°C° 0 mm 6 mps 743 mmHg 43%
23:00 +28°C° 0 mm 5 mps 743 mmHg 46%

Day after tomorrow, 10 July, Friday

Time Temperature Precipitation Wind Pressure Humidity
00:00 +27°C° 0 mm 5 mps 743 mmHg 48%
01:00 +27°C° 0 mm 4 mps 743 mmHg 50%
02:00 +27°C° 0 mm 4 mps 743 mmHg 51%
03:00 +26°C° 0 mm 4 mps 743 mmHg 51%
04:00 +26°C° 0 mm 3 mps 743 mmHg 51%
05:00 +27°C° 0 mm 4 mps 743 mmHg 47%
06:00 +29°C° 0 mm 4 mps 743 mmHg 43%
07:00 +30°C° 0 mm 4 mps 744 mmHg 39%
08:00 +33°C° 0 mm 6 mps 744 mmHg 32%
09:00 +35°C° 0 mm 7 mps 744 mmHg 24%
10:00 +38°C° 0 mm 8 mps 744 mmHg 17%
11:00 +39°C° 0 mm 8 mps 744 mmHg 17%
12:00 +39°C° 0 mm 8 mps 744 mmHg 16%
13:00 +40°C° 0 mm 8 mps 744 mmHg 15%
14:00 +39°C° 0 mm 8 mps 745 mmHg 17%
15:00 +39°C° 0 mm 9 mps 745 mmHg 18%
16:00 +38°C° 0 mm 9 mps 745 mmHg 19%
17:00 +37°C° 0 mm 9 mps 745 mmHg 21%
18:00 +35°C° 0 mm 8 mps 745 mmHg 22%
19:00 +34°C° 0 mm 7 mps 745 mmHg 24%
20:00 +32°C° 0 mm 6 mps 745 mmHg 28%
21:00 +30°C° 0 mm 5 mps 746 mmHg 33%
22:00 +28°C° 0 mm 4 mps 746 mmHg 37%
23:00 +28°C° 0 mm 3 mps 746 mmHg 39%

11 July, Saturday

Time Temperature Precipitation Wind Pressure Humidity
00:00 +27°C° 0 mm 3 mps 746 mmHg 41%
01:00 +27°C° 0 mm 3 mps 745 mmHg 43%
02:00 +26°C° 0 mm 3 mps 745 mmHg 43%
03:00 +26°C° 0 mm 3 mps 746 mmHg 43%
04:00 +26°C° 0 mm 4 mps 746 mmHg 44%
05:00 +27°C° 0 mm 4 mps 746 mmHg 41%
06:00 +29°C° 0 mm 4 mps 746 mmHg 38%
07:00 +32°C° 0 mm 5 mps 746 mmHg 35%
08:00 +34°C° 0 mm 5 mps 746 mmHg 29%
09:00 +36°C° 0 mm 5 mps 747 mmHg 23%
10:00 +39°C° 0 mm 6 mps 747 mmHg 17%
11:00 +40°C° 0 mm 6 mps 747 mmHg 16%
12:00 +40°C° 0 mm 6 mps 746 mmHg 15%
13:00 +41°C° 0 mm 6 mps 746 mmHg 14%
14:00 +41°C° 0 mm 8 mps 746 mmHg 16%
15:00 +40°C° 0 mm 9 mps 746 mmHg 17%
16:00 +40°C° 0 mm 10 mps 746 mmHg 19%
17:00 +38°C° 0 mm 9 mps 745 mmHg 22%
18:00 +37°C° 0 mm 8 mps 745 mmHg 26%
19:00 +34°C° 0 mm 7 mps 745 mmHg 29%
20:00 +33°C° 0 mm 6 mps 746 mmHg 34%
21:00 +30°C° 0 mm 5 mps 746 mmHg 40%
22:00 +28°C° 0 mm 3 mps 746 mmHg 45%
23:00 +28°C° 0 mm 3 mps 745 mmHg 46%

12 July, Sunday

Time Temperature Precipitation Wind Pressure Humidity
00:00 +28°C° 0 mm 3 mps 745 mmHg 47%
01:00 +27°C° 0 mm 3 mps 745 mmHg 49%
02:00 +27°C° 0 mm 3 mps 745 mmHg 49%
03:00 +27°C° 0 mm 3 mps 744 mmHg 50%
04:00 +27°C° 0 mm 3 mps 744 mmHg 50%
05:00 +28°C° 0 mm 4 mps 744 mmHg 48%
06:00 +30°C° 0 mm 5 mps 744 mmHg 45%
07:00 +32°C° 0 mm 5 mps 744 mmHg 42%
08:00 +35°C° 0 mm 6 mps 744 mmHg 35%
09:00 +38°C° 0 mm 7 mps 744 mmHg 27%
10:00 +41°C° 0 mm 7 mps 744 mmHg 19%
11:00 +41°C° 0 mm 8 mps 744 mmHg 17%
12:00 +43°C° 0 mm 8 mps 744 mmHg 16%
13:00 +43°C° 0 mm 9 mps 744 mmHg 14%
14:00 +42°C° 0 mm 9 mps 743 mmHg 15%
15:00 +40°C° 0 mm 9 mps 743 mmHg 16%
16:00 +40°C° 0 mm 10 mps 743 mmHg 17%
17:00 +38°C° 0 mm 9 mps 743 mmHg 19%
18:00 +35°C° 0 mm 8 mps 743 mmHg 21%
19:00 +34°C° 0 mm 7 mps 743 mmHg 24%
20:00 +32°C° 0 mm 6 mps 743 mmHg 30%
21:00 +29°C° 0 mm 5 mps 743 mmHg 36%
22:00 +27°C° 0 mm 4 mps 743 mmHg 43%
23:00 +27°C° 0 mm 4 mps 743 mmHg 44%

13 July, Monday

Time Temperature Precipitation Wind Pressure Humidity
00:00 +28°C° 0 mm 5 mps 743 mmHg 44%
01:00 +28°C° 0 mm 5 mps 742 mmHg 45%
02:00 +28°C° 0 mm 5 mps 742 mmHg 39%
03:00 +28°C° 0 mm 5 mps 742 mmHg 33%
04:00 +29°C° 0 mm 5 mps 742 mmHg 27%
05:00 +30°C° 0 mm 6 mps 742 mmHg 24%
06:00 +33°C° 0 mm 7 mps 742 mmHg 20%
07:00 +34°C° 0 mm 8 mps 743 mmHg 17%
08:00 +37°C° 0 mm 8 mps 743 mmHg 15%
09:00 +39°C° 0 mm 8 mps 743 mmHg 13%
10:00 +42°C° 0 mm 9 mps 743 mmHg 11%
11:00 +43°C° 0 mm 9 mps 743 mmHg 10%
12:00 +44°C° 0 mm 9 mps 743 mmHg 10%
13:00 +45°C° 0 mm 9 mps 743 mmHg 9%
14:00 +44°C° 0 mm 9 mps 742 mmHg 10%
15:00 +44°C° 0 mm 10 mps 742 mmHg 11%
16:00 +44°C° 0 mm 10 mps 742 mmHg 12%
17:00 +42°C° 0 mm 10 mps 742 mmHg 16%
18:00 +39°C° 0 mm 10 mps 742 mmHg 20%
19:00 +37°C° 0 mm 9 mps 742 mmHg 24%
20:00 +34°C° 0 mm 8 mps 742 mmHg 29%
21:00 +33°C° 0 mm 7 mps 742 mmHg 35%
22:00 +30°C° 0 mm 6 mps 742 mmHg 40%
23:00 +30°C° 0 mm 6 mps 742 mmHg 43%
Show more